Dewpoint
61 61 60 60 60 60 60 60 60 60 61 61 60 60 60 59 53 39 31 26 32 45 45 39 37 34 32 39 44 44 39 34 33 32 34 31 28 30 30 27 27 25 31 35 39
60 60 60 60 60 60 60 60 59 60 60 60 60 59 60 59 43 29 30 35 37 44 36 32 31 30 30 34 40 41 37 36 35 34 31 30 27 29 28 25 25 27 32 38 39
58 58 58 59 60 59 60 60 59 60 60 59 59 59 59 57 36 25 33 34 38 42 37 33 30 28 27 29 36 37 37 34 34 36 34 29 29 29 26 23 24 26 31 37 39
57 58 58 58 59 59 59 59 58 59 59 59 59 59 57 43 24 27 33 32 36 39 34 31 28 29 23 24 29 30 33 30 34 34 33 29 28 27 27 26 25 23 32 35 38
58 58 58 58 57 57 58 58 58 58 58 59 59 59 43 30 26 29 29 32 31 30 28 27 27 25 20 17 22 24 27 26 28 27 24 23 24 24 23 27 29 26 30 33 34
59 59 58 57 56 56 57 57 57 57 57 58 58 58 42 24 25 27 26 27 26 27 26 23 23 25 21 17 19 22 20 17 21 21 20 20 20 22 21 24 26 28 28 29 30
59 59 57 56 56 56 56 57 57 56 57 58 58 50 29 21 24 25 27 26 26 26 27 23 24 25 23 19 22 18 16 17 19 21 23 25 23 22 23 20 19 27 27 27 28
59 58 57 55 56 56 57 57 56 55 57 57 57 42 25 25 26 25 26 27 26 25 25 25 27 26 24 23 20 18 18 19 22 22 25 23 20 23 21 20 18 19 20 24 26
59 58 57 56 56 56 56 56 55 56 56 54 45 37 21 24 21 22 24 24 25 25 27 24 27 26 23 22 22 19 17 17 21 21 22 22 19 19 20 20 20 19 18 20 25
60 58 57 55 56 56 55 53 53 52 47 42 37 27 24 18 23 22 24 25 24 23 23 27 26 24 23 19 15 11 11 7 9 18 18 18 18 19 16 16 17 17 17 16 21
60 59 57 55 55 55 53 46 37 36 34 27 24 18 17 20 23 23 23 24 23 20 18 26 19 19 19 17 13 10 6 5 7 18 15 14 14 15 17 17 18 19 17 16 17
61 59 58 55 54 55 52 39 42 43 36 33 30 24 22 23 18 19 22 20 20 18 17 17 18 19 18 18 17 16 13 9 12 15 14 12 12 13 14 14 17 19 19 16 15
61 60 58 54 54 50 43 43 43 44 38 27 28 26 22 22 17 16 21 20 18 16 15 14 17 19 18 17 17 16 14 11 11 14 15 14 15 16 15 14 18 17 18 17 15
60 60 57 53 50 44 43 44 44 43 31 22 28 28 27 23 19 18 20 19 16 14 14 12 20 18 17 17 16 16 15 14 16 15 13 16 4 13 12 14 15 16 15 17 16
60 59 56 53 50 41 45 45 44 41 12 21 24 25 24 20 21 19 22 20 18 15 16 16 19 19 17 16 18 19 19 17 17 16 17 16 11 5 12 13 13 14 15 16 18
57 60 56 53 51 44 44 46 42 27 12 19 22 20 20 22 19 22 20 22 22 17 17 16 19 19 19 19 17 20 18 19 21 21 18 17 10 9 10 11 11 12 15 14 16
55 57 55 54 49 50 45 43 28 17 15 18 18 19 19 19 19 19 17 17 15 13 13 14 16 18 19 18 20 19 17 16 22 20 14 15 14 8 12 10 10 9 13 15 16
56 56 57 55 54 50 44 37 26 15 14 19 19 19 17 17 18 17 17 17 17 15 12 12 12 17 18 17 17 18 16 15 15 19 19 18 10 10 15 10 11 10 14 16 16
56 55 54 54 53 50 41 30 16 17 16 19 18 17 17 17 18 17 17 16 16 16 14 8 12 16 17 17 18 18 16 20 18 14 15 16 19 19 14 12 11 11 15 17 18
52 52 52 54 53 47 37 28 21 20 19 19 16 17 14 17 17 17 17 17 17 16 16 12 10 16 16 16 16 19 21 12 12 9 18 17 14 14 15 13 13 13 16 20 21
50 47 50 46 51 46 32 26 27 26 22 18 17 17 15 17 18 16 16 17 18 17 18 15 13 16 15 15 14 16 15 18 19 19 18 22 19 18 18 16 14 15 20 24 25
48 41 46 46 45 45 39 34 25 24 25 23 23 22 22 16 18 18 17 17 19 21 17 17 15 11 14 16 16 16 13 14 14 14 17 21 21 21 21 20 15 16 20 26 29
43 43 45 47 40 42 42 40 39 33 23 23 24 23 20 19 17 18 19 24 22 21 19 18 15 12 14 18 17 15 15 16 14 17 20 19 13 20 21 21 17 15 20 25 29
42 39 42 43 43 40 40 40 37 36 34 25 24 24 22 20 21 19 20 26 24 23 24 23 17 14 9 17 18 14 14 16 16 13 13 18 22 22 23 20 20 18 19 22 28
41 37 42 38 39 40 39 39 39 36 33 29 24 25 23 20 19 18 19 26 27 27 24 23 18 17 16 15 16 17 17 15 15 15 14 14 15 17 16 23 24 21 22 20 25
36 36 38 41 40 40 40 39 37 36 34 31 30 29 26 23 22 20 19 20 20 26 24 22 18 17 15 16 15 14 15 16 17 16 15 15 14 16 15 14 14 19 22 20 20
38 40 39 37 37 37 37 38 38 38 37 36 32 30 30 29 26 23 21 20 20 21 24 20 20 17 15 16 16 15 15 15 15 18 16 14 15 16 15 14 14 15 16 22 19
Wind_Speed
13 15 15 15 16 17 17 18 19 18 19 19 19 20 19 19 23 7 8 0 4 8 10 12 14 9 7 3 4 3 5 12 9 5 11 9 5 3 2 5 2 4 10 16 21
10 11 13 15 16 16 17 18 19 19 19 20 21 21 19 18 9 16 2 4 6 7 9 12 13 6 6 2 3 5 9 6 11 13 6 8 4 11 4 8 7 10 11 19 18
11 11 12 13 15 16 17 17 19 19 20 21 22 22 20 17 8 1 0 5 4 6 10 12 10 8 7 2 5 6 8 4 9 9 7 4 3 2 6 6 9 18 21 18 16
13 14 14 14 14 15 17 18 19 20 21 21 22 21 24 5 5 5 2 2 4 7 10 12 8 7 4 7 3 6 2 6 2 4 1 4 4 2 9 11 10 7 25 21 19
12 13 15 16 16 17 17 18 20 21 22 21 21 18 10 6 5 5 3 2 6 8 10 10 12 2 8 4 3 12 6 1 5 2 3 3 6 9 10 14 11 7 16 20 18
12 13 14 15 17 18 18 19 20 21 22 21 19 17 4 11 4 6 3 2 4 7 6 6 7 9 8 4 6 4 1 5 5 7 4 4 9 5 10 17 12 13 12 15 18
13 14 14 16 17 19 20 20 21 23 23 20 14 5 8 13 2 2 1 1 3 5 9 4 8 8 7 5 1 3 5 7 9 9 5 2 10 15 12 9 11 18 17 16 17
12 14 16 16 18 20 22 23 24 24 21 14 7 4 7 2 4 2 5 5 3 1 2 3 6 8 4 4 4 6 11 10 10 8 5 4 3 17 14 15 13 15 16 18 17
12 13 16 18 19 22 24 26 28 20 11 9 5 7 8 3 4 8 4 7 1 3 2 4 5 6 2 7 9 10 7 9 8 10 3 9 9 14 13 14 14 15 17 19 18
12 14 16 19 21 23 28 31 18 9 6 8 10 6 6 1 5 1 5 4 5 4 7 4 6 6 8 13 5 8 5 2 3 9 8 10 19 14 17 17 17 14 13 18 21
12 13 17 20 23 24 19 8 2 1 8 9 1 7 2 5 2 6 7 5 7 7 10 11 6 11 5 9 6 8 8 9 4 7 2 13 20 19 14 23 21 19 16 17 21
12 13 15 20 23 26 14 6 5 1 9 14 21 16 2 3 4 8 6 6 9 10 14 5 14 4 7 4 5 8 9 10 3 5 2 13 20 18 19 21 20 17 17 17 18
11 13 15 22 23 14 8 6 7 9 7 10 16 19 14 8 6 9 11 7 10 11 13 11 5 3 1 2 6 10 7 7 6 11 18 15 15 13 17 17 14 14 11 17 17
12 10 13 22 6 15 3 8 10 6 6 7 5 3 7 8 7 8 12 5 6 7 11 9 4 2 2 6 5 10 6 3 6 8 3 4 8 5 16 17 17 16 15 12 19
14 9 10 5 11 8 8 11 10 3 6 6 4 2 7 11 7 2 4 4 8 9 2 1 2 4 7 7 2 1 3 4 6 9 12 6 6 10 22 16 21 20 21 18 15
15 10 7 8 6 6 10 13 7 3 8 3 5 6 6 16 5 3 5 4 2 6 6 13 1 3 4 5 2 2 4 9 7 6 6 13 12 6 19 22 21 22 22 22 21
14 12 4 8 5 12 11 7 4 7 2 5 4 7 12 11 14 9 10 10 10 6 12 13 14 4 2 3 2 3 4 2 3 5 6 5 9 16 9 14 22 24 23 20 18
16 10 6 10 12 9 8 4 10 7 14 4 3 6 8 9 9 13 9 15 20 17 8 8 6 16 12 8 1 11 5 4 5 2 1 1 9 8 9 12 19 23 22 20 20
10 2 4 6 11 7 6 12 9 13 11 8 5 7 10 11 2 14 17 19 17 21 10 8 7 5 4 2 1 5 8 2 4 7 3 7 8 6 8 10 14 22 22 22 20
7 4 7 9 9 6 9 16 14 9 2 2 8 15 9 13 9 11 11 10 21 19 21 3 1 4 3 1 7 3 6 3 5 5 6 9 15 12 16 19 16 19 23 21 19
4 5 2 8 10 7 17 13 19 21 4 4 8 11 11 4 15 13 6 5 9 12 21 5 9 4 5 11 14 7 6 7 2 6 4 5 4 6 21 25 27 22 20 21 21
5 6 6 6 12 6 19 17 12 29 10 9 2 11 10 11 10 9 12 3 3 7 6 15 6 12 14 6 13 12 12 15 6 5 7 2 10 2 4 23 24 24 22 20 20
4 8 5 3 15 20 11 25 28 26 23 10 13 11 11 9 7 13 22 4 2 11 7 10 8 7 5 1 1 8 16 16 17 11 11 5 7 2 4 4 19 23 20 21 21
6 5 2 3 2 9 18 26 25 15 30 28 20 19 19 16 17 7 6 3 3 6 4 5 8 13 13 5 7 7 15 23 22 16 18 26 19 6 4 2 1 15 20 22 22
5 7 2 6 16 11 11 9 24 28 24 13 24 28 22 22 22 24 17 3 4 6 4 5 11 16 22 27 11 13 14 24 29 30 21 17 29 28 23 7 10 13 10 17 22
6 6 5 6 8 20 23 25 23 19 25 26 26 18 23 31 24 18 23 18 16 12 9 9 10 15 26 22 22 24 22 23 28 32 31 32 39 27 26 22 13 9 19 22 19
9 11 8 9 12 15 19 19 19 23 27 23 22 24 29 26 21 27 28 27 18 16 19 10 11 9 21 18 20 26 35 32 28 29 24 38 35 27 25 26 23 20 19 21 27
Wind_Direction
16 9 6 5 3 358 356 354 350 346 342 336 332 331 330 332 320 272 269 318 15 352 327 285 273 262 257 192 260 282 284 261 234 233 100 121 160 131 15 149 180 134 77 116 133
9 5 359 355 353 352 349 347 345 341 339 335 331 329 327 333 304 279 118 65 17 354 319 318 328 342 258 225 217 236 238 348 20 55 78 137 242 140 184 200 165 126 107 125 144
358 355 352 347 344 342 341 340 338 336 335 334 329 325 322 325 290 92 341 63 353 318 284 296 288 281 291 262 215 239 276 54 46 50 12 131 207 166 208 245 204 185 159 157 164
354 349 344 341 337 335 334 333 331 331 330 329 326 324 317 280 325 100 124 53 313 301 290 281 261 251 272 232 193 274 97 350 93 49 16 253 264 194 219 247 69 41 155 162 178
348 347 343 337 334 330 328 325 325 324 323 322 322 326 334 253 270 137 148 213 278 270 282 326 298 246 238 239 225 243 132 262 91 149 247 329 257 249 263 216 154 147 143 169 186
342 343 341 337 331 326 322 319 318 317 316 316 317 321 258 279 112 104 55 258 308 308 315 307 332 347 312 317 270 7 190 194 172 204 223 236 258 170 244 231 184 169 192 189 191
336 339 339 333 330 325 320 315 311 310 309 309 309 309 272 252 61 64 157 20 319 334 315 32 325 297 356 206 229 236 228 205 210 214 236 182 255 230 228 167 208 182 194 212 197
329 334 333 330 328 324 318 310 304 303 303 297 297 279 260 76 345 199 222 213 227 259 328 313 320 284 277 44 230 233 228 232 159 170 178 165 314 205 193 176 208 203 204 203 206
319 327 330 326 326 322 316 307 298 294 281 279 274 209 272 147 209 219 237 260 122 243 259 283 265 282 164 239 232 206 242 212 173 197 158 199 299 152 164 192 212 217 205 193 196
314 322 326 324 323 321 318 303 280 304 244 244 267 291 231 277 81 282 210 267 254 284 262 221 227 234 220 244 323 349 289 123 195 181 207 236 255 261 191 201 217 228 218 194 189
312 318 323 321 319 320 335 334 230 169 233 240 322 238 179 99 159 218 187 211 241 246 267 194 271 242 61 39 4 317 316 295 287 137 251 245 252 252 225 199 211 222 229 219 192
315 316 320 318 317 318 308 346 32 289 305 261 256 254 282 14 232 225 145 218 197 251 244 245 245 25 68 38 321 302 293 292 70 102 230 277 276 260 226 225 209 208 224 225 193
319 314 321 315 318 315 346 37 333 320 270 279 231 225 215 196 238 212 177 208 262 259 258 252 319 117 65 246 280 273 256 334 325 319 247 265 278 232 228 228 187 207 219 202 197
313 312 322 321 317 337 29 352 334 325 286 207 189 279 213 200 232 243 188 254 218 258 260 265 88 212 218 261 278 289 24 344 306 317 305 181 293 203 182 187 190 199 209 215 189
313 308 312 337 309 327 345 328 323 254 310 121 145 10 182 195 135 167 54 199 248 223 214 251 200 240 249 256 51 11 351 305 299 288 296 252 227 267 162 200 207 204 195 201 200
343 303 306 298 251 337 329 313 280 242 254 119 127 174 174 217 159 131 211 235 337 278 241 262 108 288 245 81 43 62 282 241 263 253 256 221 194 214 185 205 195 195 183 186 187
334 329 238 309 285 350 321 287 236 233 147 159 204 177 210 197 222 193 189 195 202 192 230 223 204 159 173 201 179 201 278 267 259 203 242 56 191 252 219 199 190 180 168 174 179
322 314 241 244 292 323 298 232 236 260 230 89 151 202 211 208 223 202 223 217 217 243 310 212 205 177 193 226 283 192 222 275 279 258 304 58 235 248 232 169 171 164 166 168 176
327 292 252 226 242 267 252 212 209 229 301 152 154 203 208 236 211 198 224 243 227 205 212 226 196 48 136 336 309 142 215 324 297 269 278 229 255 263 143 151 151 162 165 174 177
313 296 247 225 211 209 230 228 219 268 16 231 219 192 226 188 197 197 226 231 231 227 214 327 228 182 128 8 262 226 319 166 207 236 246 256 223 229 190 183 184 175 176 177 180
286 278 274 335 181 211 222 221 243 262 19 251 257 275 265 217 193 213 275 216 196 230 193 233 241 140 127 206 188 178 232 222 269 241 253 305 234 337 203 192 192 196 187 187 187
283 247 356 353 189 211 225 222 264 267 214 243 287 279 282 251 202 238 224 240 138 134 223 215 282 243 214 178 212 205 214 207 203 215 226 279 278 340 21 197 187 194 192 193 188
246 259 11 90 220 226 237 230 241 258 259 250 231 226 279 276 280 232 243 75 145 161 207 193 225 246 185 220 195 220 217 228 239 269 238 225 253 22 8 27 185 188 190 189 185
290 262 230 264 298 239 231 239 238 234 245 259 265 248 262 259 265 277 232 114 186 214 252 315 256 234 228 139 132 201 214 217 217 228 230 231 254 283 146 64 228 193 191 189 187
238 255 266 234 243 232 239 249 236 237 237 238 243 251 253 257 243 254 248 185 196 227 225 221 248 258 264 276 234 242 228 213 218 225 221 237 239 255 270 224 215 221 218 197 192
247 251 271 270 251 228 229 238 241 250 232 232 240 239 236 250 253 251 261 233 230 185 201 218 237 249 257 269 282 274 253 226 217 231 243 262 263 264 280 299 284 228 212 225 211
225 253 274 289 269 252 240 242 255 256 256 256 256 256 239 254 254 257 270 277 281 245 193 208 212 230 260 263 269 270 244 238 230 224 215 235 243 250 264 263 257 250 237 224 222